Knoxville, TN

2:03 PM EDT on May 28, 2017 (GMT -0400)
South Haven | | Change Station

Elev 893 ft 35.95 °N, 83.88 °W | Updated 16 seconds ago

Partly Cloudy
Partly Cloudy
75.0 °F
Feels Like 77 °F
N
0.2
Wind Variable Wind from SW
Gusts 2.5 mph

Today
High -- | Low -- °F
--% Chance of Precip.
Yesterday
High -- | Low -- °F
Precip. -- in
Pressure 29.89 in
Visibility 10.0 miles
Clouds Mostly Cloudy 1100 ft
Mostly Cloudy 2900 ft
Mostly Cloudy 12000 ft
Heat Index 77 °F
Dew Point 64 °F
Humidity 69%
Rainfall 0.01 in
Snow Depth Not available.
6:21 AM 8:44 PM
Waxing Crescent, 12% visible
METAR KTYS 281753Z 25009KT 10SM BKN011 BKN029 BKN120 23/18 A2992 RMK AO2 SLP122 60000 T02280178 10233 20172 55002 $
Pressure 29.89 in
Visibility 10.0 miles
Clouds Mostly Cloudy 1100 ft
Mostly Cloudy 2900 ft
Mostly Cloudy 12000 ft
Heat Index 77 °F
Dew Point 64 °F
Humidity 69%
Rainfall 0.01 in
Snow Depth Not available.
6:21 AM 8:44 PM
Waxing Crescent, 12% visible
METAR KTYS 281753Z 25009KT 10SM BKN011 BKN029 BKN120 23/18 A2992 RMK AO2 SLP122 60000 T02280178 10233 20172 55002 $

Get Severe Weather Alerts

Thanks for signing up!

Be on the lookout for a verification email in your inbox.

You'll start receiving the daily forecast at 6 AM.

×

10-Day Weather Forecast

Almanac

Astronomy

May. 28, 2017 Rise Set
Actual Time
Civil Twilight
Nautical Twilight
Astronomical Twilight
Moon
Length of Visible Light
Length of Day
Tomorrow will be .
, % of the Moon is Illuminated

Today's Extremes

State Highs State Lows

Community

WunderPhotos

Category 6

Welcome to Category 6. This is the collective home for Weather Underground's featured writeups by Dr. Jeff Masters (right), Bob Henson (left), Chris Burt, and other regular contributors.

Nearby

Air Quality

  Air Quality AQ Index Pollutant
Not available.

Snow Depth

Station Depth Elevation

Earthquake Activity

City Distance Mag. Time & Date
Minimum magnitude displayed is 2.5.

Coastal Water Temperatures

Place Temperature

Stations

Nearby Weather Stations

Station Location Temp. Windchill Dew Point Humidity Wind Precip. Elev Updated Type
                   

Watches & Warnings

There are currently no watches in effect.